CW8081 Thessaloniki GR current weather conditions

sailwx.info

Wind from 159

Air temperature 27.8° C
Dewpoint 22.5° C

Last reported at 2014-Aug-23 18:41 UTC.
Time now 2014-Aug-23 19:49 UTC

Location: N 40°34' E 022°58'.
View on Google Maps.

See reports from other nearby stations

  
Tides and Currents Weather Stations Pressure Air Temp Water Temp Dewpoint Dewpoint Depression Visibility Wind Speed Wind Dir Waves Ship Positions
date/time (UTC)wind fromknots sea level pressurealtimeterstation pressurevisibilityair tempwater tempwave heightnotes
2014-Aug-23 18:41 159 27.8
2014-Aug-23 18:31 174 27.8
2014-Aug-23 18:11 173 27.8
2014-Aug-23 18:01 172 27.8
2014-Aug-23 17:41 186 28.3
2014-Aug-23 17:31 185 28.9
2014-Aug-23 17:11 193 29.4
2014-Aug-23 17:01 195 29.4
2014-Aug-23 16:41 194 30.0
2014-Aug-23 16:31 194 30.0
2014-Aug-23 16:11 184 30.6
2014-Aug-23 16:01 214 31.1
2014-Aug-23 15:41 201 31.1
2014-Aug-23 15:31 213 31.7
2014-Aug-23 15:11 217 32.2
2014-Aug-23 15:01 231 32.2
2014-Aug-23 14:41 232 31.7
2014-Aug-23 14:31 244 31.7
2014-Aug-23 14:11 262 32.2
2014-Aug-23 14:01 236 32.2
2014-Aug-23 13:41 263 32.2
2014-Aug-23 13:11 221 32.8
2014-Aug-23 13:01 270 32.8
2014-Aug-23 12:41 259 32.2
2014-Aug-23 12:31 247 32.2
2014-Aug-23 12:11 215 5 gusting 11 32.2
2014-Aug-23 12:01 248 6 gusting 12 32.2
2014-Aug-23 11:41 239 4 gusting 12 32.2
2014-Aug-23 11:31 210 5 gusting 10 31.7
2014-Aug-23 11:11 238 6 gusting 10 31.7
2014-Aug-23 11:01 273 6 gusting 8 31.7
2014-Aug-23 10:41 238 6 gusting 8 30.6
2014-Aug-23 10:31 242 6 gusting 10 30.6
2014-Aug-23 10:11 250 6 gusting 10 31.1
2014-Aug-23 10:01 243 6 gusting 10 31.1
2014-Aug-23 09:41 224 5 gusting 8 31.1
2014-Aug-23 09:31 209 5 gusting 7 30.6
2014-Aug-23 09:11 244 4 gusting 7 29.4
2014-Aug-23 09:01 245 4 gusting 7 29.4
2014-Aug-23 08:31 225 5 gusting 7 28.9
2014-Aug-23 07:11 214 4 gusting 6 26.7
2014-Aug-23 07:01 220 2 gusting 6 26.7
2014-Aug-23 06:41 259 2 gusting 5 26.1
2014-Aug-23 06:31 211 2 gusting 6 26.1
2014-Aug-23 06:11 220 3 gusting 5 25.6
2014-Aug-23 06:01 221 2 gusting 5 25.6
2014-Aug-23 05:41 206 25.0
2014-Aug-23 05:31 206 24.4
2014-Aug-23 05:11 206 23.9
2014-Aug-23 05:01 206 23.9
2014-Aug-23 04:41 206 23.3
2014-Aug-23 04:31 206 23.3
2014-Aug-23 04:11 206 23.3
2014-Aug-23 04:01 206 23.3
2014-Aug-23 03:41 206 23.3
2014-Aug-23 03:31 206 23.3
2014-Aug-23 03:11 206 23.3
2014-Aug-23 03:01 206 23.3
2014-Aug-23 02:41 206 23.3
2014-Aug-23 02:31 206 23.3
2014-Aug-23 02:11 206 23.3
2014-Aug-23 02:01 206 23.3
2014-Aug-23 01:41 206 23.9
2014-Aug-23 01:31 206 23.9
2014-Aug-23 01:11 206 23.9
2014-Aug-23 01:01 206 23.9
2014-Aug-23 00:41 206 23.9
2014-Aug-23 00:31 206 24.4
2014-Aug-23 00:11 206 24.4
2014-Aug-23 00:01 206 25.0
2014-Aug-22 23:41 206 25.0
2014-Aug-22 23:31 206 25.6
2014-Aug-22 23:11 206 25.6
2014-Aug-22 23:01 206 25.6
2014-Aug-22 22:41 206 25.6
2014-Aug-22 22:31 206 26.1
2014-Aug-22 22:11 206 26.1
2014-Aug-22 22:01 206 26.1
2014-Aug-22 21:41 206 26.1
2014-Aug-22 21:31 206 26.1
2014-Aug-22 21:11 206 26.1
2014-Aug-22 21:01 206 26.1
2014-Aug-22 20:41 206 26.7
2014-Aug-22 20:31 206 26.7
2014-Aug-22 20:11 206 26.7
2014-Aug-22 20:01 206 26.7
2014-Aug-22 19:41 206 27.2
2014-Aug-22 19:31 206 27.2
2014-Aug-22 19:11 206 1 gusting 5 27.2
2014-Aug-22 19:01 205 27.2
2014-Aug-22 18:41 205 27.2
2014-Aug-22 18:31 205 27.8
2014-Aug-22 18:11 205 0 gusting 4 27.8
2014-Aug-22 18:01 205 2 gusting 6 27.8
2014-Aug-22 17:41 204 4 gusting 7 28.3
2014-Aug-22 17:31 204 4 gusting 7 28.3
2014-Aug-22 17:11 225 28.9
2014-Aug-22 17:01 225 3 gusting 8 28.9
2014-Aug-22 16:41 211 4 gusting 8 29.4
2014-Aug-22 16:31 223 3 gusting 8 29.4
2014-Aug-22 16:11 211 5 gusting 10 30.0
2014-Aug-22 16:01 212 6 gusting 11 30.6
2014-Aug-22 15:41 203 8 gusting 11 31.1
2014-Aug-22 15:31 201 6 gusting 12 31.1
2014-Aug-22 15:11 197 6 gusting 13 31.7
2014-Aug-22 15:01 207 7 gusting 13 31.7
2014-Aug-22 14:41 203 10 gusting 13 31.7
2014-Aug-22 14:31 207 11 gusting 15 32.2
2014-Aug-22 14:11 208 9 gusting 15 32.2
2014-Aug-22 14:01 207 8 gusting 17 32.2
2014-Aug-22 13:41 220 11 gusting 17 32.8
2014-Aug-22 13:31 207 8 gusting 17 32.8
2014-Aug-22 13:11 201 10 gusting 15 32.8
2014-Aug-22 13:01 199 9 gusting 13 33.3
2014-Aug-22 12:41 199 9 gusting 15 33.3
2014-Aug-22 12:31 211 8 gusting 15 33.3
2014-Aug-22 12:11 179 4 gusting 10 33.3
2014-Aug-22 12:01 234 4 gusting 8 32.8
2014-Aug-22 11:41 287 5 gusting 10 31.7
2014-Aug-22 11:31 235 4 gusting 12 31.7
2014-Aug-22 11:11 259 2 gusting 10 31.7
2014-Aug-22 11:01 261 4 gusting 10 31.7
2014-Aug-22 10:41 254 5 gusting 7 31.7
2014-Aug-22 10:31 259 5 gusting 7 31.7
2014-Aug-22 10:11 218 5 gusting 7 30.6
2014-Aug-22 10:01 217 4 gusting 6 30.6
2014-Aug-22 09:41 222 2 gusting 7 29.4
2014-Aug-22 09:31 229 4 gusting 8 29.4
2014-Aug-22 09:11 213 3 gusting 7 28.9
2014-Aug-22 09:01 224 5 gusting 8 28.3
2014-Aug-22 08:41 238 2 gusting 6 27.8
2014-Aug-22 08:31 250 5 gusting 7 27.2
2014-Aug-22 08:11 223 4 gusting 6 27.8
2014-Aug-22 08:01 223 5 gusting 7 27.8
2014-Aug-22 07:41 213 2 gusting 5 27.2
2014-Aug-22 07:31 211 0 gusting 6 26.7
2014-Aug-22 07:11 218 4 gusting 6 26.1
2014-Aug-22 07:01 223 2 gusting 5 26.1
2014-Aug-22 06:41 238 0 gusting 4 25.6
2014-Aug-22 06:31 238 1 gusting 4 25.0
2014-Aug-22 06:11 240 0 gusting 2 24.4
2014-Aug-22 06:01 240 1 gusting 4 24.4
2014-Aug-22 05:41 261 23.9
2014-Aug-22 05:31 269 23.3
2014-Aug-22 05:11 269 22.8
2014-Aug-22 05:01 269 22.8
2014-Aug-22 04:41 269 22.8
2014-Aug-22 04:31 269 22.8
2014-Aug-22 04:11 269 22.8
2014-Aug-22 04:01 269 22.8
2014-Aug-22 03:41 269 22.8
2014-Aug-22 03:31 269 22.8
2014-Aug-22 03:11 269 22.8
2014-Aug-22 03:01 269 22.8
2014-Aug-22 02:41 269 22.8
2014-Aug-22 02:31 269 22.8
2014-Aug-22 02:11 269 22.8
2014-Aug-22 02:01 269 22.8
2014-Aug-22 01:41 269 22.8
2014-Aug-22 01:31 269 22.8
2014-Aug-22 01:11 269 23.3
2014-Aug-22 01:01 269 23.3
2014-Aug-22 00:41 269 23.3
2014-Aug-22 00:31 269 23.9
2014-Aug-22 00:11 269 24.4
2014-Aug-22 00:01 269 24.4
2014-Aug-21 23:41 269 24.4
2014-Aug-21 23:31 269 25.0
2014-Aug-21 23:11 269 25.0
2014-Aug-21 23:01 269 25.0
2014-Aug-21 22:41 269 25.0
2014-Aug-21 22:31 269 25.0
2014-Aug-21 22:11 269 25.6
2014-Aug-21 22:01 269 25.6
2014-Aug-21 21:41 269 25.6
2014-Aug-21 21:31 269 25.6
2014-Aug-21 21:11 269 26.1
2014-Aug-21 21:01 269 26.1
2014-Aug-21 20:41 269 26.1
2014-Aug-21 20:31 269 26.1
2014-Aug-21 20:11 269 26.1
2014-Aug-21 20:01 269 26.1
2014-Aug-21 19:41 269 26.7
2014-Aug-21 19:31 269 26.7
2014-Aug-21 19:11 223 26.7
2014-Aug-21 19:01 223 26.7